Home   Weather   Kraków   Past weeks

Flag for Poland Past Weather in Kraków, Poland — Yesterday and Last 2 Weeks

Now
45 °F

Clear.


Feels Like: 41 °F
Forecast: 37 / 61 °F
Wind: 7 mph from Northeast

Location: Krakow Airport

Current Time: Apr 30, 2017 at 10:44:21 pm

Latest Report: Apr 30, 2017 at 10:00 pm


Visibility: 10 mi

Pressure: 30.12 "Hg

Humidity: 76%

Dew Point: 37 °F

Location of KrakówLocation

Past Weather in Kraków — Graph

°F

Kraków Temperature Yesterday

Maximum temperature yesterday: 52 °F (at 5:00 pm)
Minimum temperature yesterday: 39 °F (at 12:30 am)
Average temperature yesterday: 44 °F

High & Low Weather Summary for the Past Weeks

 TemperatureHumidityPressure
High66 °F (Apr 25, 1:30 pm)100% (Apr 18, 9:00 am)30.39 "Hg (Apr 18, 9:00 am)
Low28 °F (Apr 21, 4:30 am)37% (Apr 25, 1:30 pm)29.68 "Hg (Apr 25, 2:00 pm)
Average42 °F78%29.98 "Hg
* Reported Apr 15 9:00 pm — Apr 30 9:30 pm, Kraków, Weather by CustomWeather, © 2017

Note: Actual official high and low records may vary slightly from our data, if they occured in-between our weather recording intervals... More about our weather records

Advertising

Kraków Weather History for the Previous 24 Hours

Scroll right to see more
 ConditionsComfort  
Time TempWeatherWind HumidityBarometerVisibility
9:30 pm
Sun, Apr 30
45 °FClear.7 mph76%30.12 "Hg10 mi
9:00 pm45 °FClear.7 mph76%30.12 "Hg10 mi
8:30 pm46 °FClear.8 mph76%30.09 "Hg10 mi
8:00 pm48 °FClear.9 mph66%30.09 "Hg10 mi
7:30 pm50 °FSunny.9 mph62%30.09 "Hg10 mi
7:00 pm50 °FPassing clouds.10 mph62%30.09 "HgN/A
6:30 pm52 °FPassing clouds.10 mph54%30.09 "HgN/A
6:00 pm52 °FPassing clouds.13 mph54%30.09 "HgN/A
5:30 pm54 °FPassing clouds.10 mph54%30.09 "HgN/A
5:00 pm54 °FPassing clouds.7 mph51%30.12 "HgN/A
4:30 pm54 °FPassing clouds.6 mph54%30.12 "HgN/A
4:00 pm54 °FPassing clouds.7 mph51%30.12 "HgN/A
3:30 pm54 °FPassing clouds.8 mph51%30.12 "HgN/A
3:00 pm52 °FPassing clouds.10 mph54%30.12 "HgN/A
2:30 pm52 °FPassing clouds.12 mph58%30.15 "HgN/A
2:00 pm50 °FScattered clouds.10 mph67%30.15 "HgN/A
1:30 pm48 °FScattered clouds.8 mph71%30.15 "HgN/A
1:00 pm46 °FPartly sunny.5 mph76%30.15 "HgN/A
12:30 pm46 °FPartly sunny.3 mph71%30.15 "HgN/A
12:00 pm45 °FPartly sunny.5 mph76%30.15 "HgN/A
11:30 am45 °FPartly sunny.3 mph76%30.15 "HgN/A
11:00 am45 °FPartly sunny.5 mph76%30.15 "HgN/A
10:30 am45 °FPartly sunny.3 mph81%30.15 "HgN/A
10:00 am43 °FPartly sunny.3 mph87%30.15 "HgN/A
9:30 am43 °FPartly sunny.2 mph87%30.15 "Hg4 mi
9:00 am41 °FLight rain. Fog.2 mph93%30.15 "Hg3 mi
8:30 am41 °FLight rain. Fog.1 mph93%30.15 "Hg2 mi
8:00 am41 °FLight rain. Partly sunny.2 mph93%30.12 "Hg4 mi
7:30 am41 °FLight rain. Fog.1 mph93%30.12 "Hg2 mi
7:00 am39 °FLight rain. Fog.2 mph93%30.12 "Hg1 mi
6:30 am37 °FFog.1 mph100%30.12 "Hg1 mi
6:00 am37 °FFog.1 mph93%30.12 "Hg1 mi
5:30 am37 °FFog.1 mph93%30.12 "Hg2 mi
5:00 am37 °FFog.5 mph93%30.09 "Hg2 mi
4:30 am36 °FFog.2 mph93%30.09 "Hg2 mi
4:00 am37 °FFog.3 mph93%30.09 "Hg3 mi
3:30 am36 °FPartly cloudy.2 mph100%30.09 "Hg4 mi
3:00 am36 °FFog.1 mph93%30.09 "Hg3 mi
2:30 am37 °FPassing clouds.2 mph93%30.07 "Hg4 mi
2:00 am36 °FPassing clouds.2 mph93%30.07 "Hg4 mi
1:30 am39 °FClear.1 mph87%30.07 "Hg10 mi
1:00 am41 °FPassing clouds.5 mph81%30.07 "HgN/A
12:30 am39 °FPassing clouds.2 mph87%30.07 "HgN/A
12:00 am37 °FPassing clouds.2 mph87%30.07 "HgN/A
11:30 pm
Sat, Apr 29
39 °FPassing clouds.2 mph93%30.07 "HgN/A
11:00 pm43 °FPassing clouds.1 mph81%30.04 "HgN/A
10:30 pm43 °FPassing clouds.No wind81%30.04 "HgN/A
Weather by CustomWeather, © 2017

See weather overviewHow to use our weather pages